#timestamp,LO_Frequency,Hit,StdDev 
1535760015.9,286047002.7,N
1535760035.7,286047002.3,N
1535760055.5,286047000.2,N
1535760075.4,286047002.5,N
1535760095.2,286047002.7,N
1535760115.1,286047002.6,N
1535760116.0,286047002.6,N
1535760135.8,286047003.9,Y
1535760155.6,286047004.1,P
1535760175.5,286047003.7,P
1535760195.3,286047003.7,P
1535760215.1,286047002.5,N
1535760235.9,286047000.3,N
1535760255.7,286047001.8,N
1535760275.6,286047003.2,N
1535760295.4,286047003.5,N
1535760315.2,286047004.3,Y
1535760335.1,286047000.3,P
1535760336.0,286047000.3,N
1535760355.8,286047000.1,N
1535760375.6,286047000.5,N
1535760395.5,286047000.2,N
1535760415.3,286047002.7,N
1535760435.2,286046999.8,N
1535760455.9,286046999.9,N
1535760475.7,286047002.1,N
1535760495.6,286047002.1,N
1535760515.4,286047000.3,N
1535760535.3,286047000.9,N
1535760555.1,286047000.6,N
1535760556.0,286047000.6,N
1535760575.8,286046998.3,N
1535760595.7,286046999.0,N
1535760615.5,286046998.6,N
1535760635.3,286047000.6,N
1535760655.2,286047001.2,N
1535760675.0,286046998.5,N
1535760675.9,286046998.5,N
1535760695.8,286047000.8,N
1535760715.6,286047000.7,N
1535760735.4,286047000.7,N
1535760755.3,286047001.1,N
1535760775.1,286047000.8,N
1535760795.9,286047001.1,N
1535760815.7,286047000.6,N
1535760835.5,286047000.3,N
1535760855.4,286046999.1,N
1535760875.2,286047000.8,N
1535760895.0,286046998.1,N
1535760895.9,286046998.1,N
1535760945.8,286046998.3,E
1535760955.7,286047001.0,N
1535760975.6,286047000.2,P
1535760995.4,286047002.5,P
1535761015.2,286047001.6,N
1535761035.1,286047004.4,Y
1535761036.0,286047004.4,P
1535761055.8,286047002.8,N
1535761075.7,286046996.8,N
1535761095.5,286046998.0,N
1535761115.3,286046997.8,N
1535761135.2,286046999.3,N
1535761155.0,286047000.8,N
1535761155.9,286047000.8,N
1535761175.8,286046998.6,N
1535761195.6,286046998.4,N
1535761215.4,286047001.2,N
1535761235.3,286047000.6,N
1535761255.1,286046999.7,N
1535761275.8,286047002.4,N
1535761295.7,286047000.2,N
1535761315.5,286047000.5,N
1535761335.4,286047000.3,N
1535761355.2,286046999.7,N
1535761375.0,286047002.1,N
1535761375.9,286047002.1,N
1535761395.8,286047004.0,N
1535761415.6,286047005.7,N
1535761435.4,286047005.5,N
1535761455.3,286047005.9,N
1535761475.1,286047003.4,N
1535761495.9,286047003.1,N
1535761515.7,286047003.1,N
1535761535.5,286047003.1,N
1535761555.4,286047004.2,N
1535761575.2,286047004.2,N
1535761595.0,286047004.2,N
1535761595.9,286047004.2,N
1535761615.8,286047001.5,N
1535761635.6,286047001.6,N
1535761655.4,286047001.6,N
1535761675.3,286047001.4,N
1535761695.1,286047003.4,N
1535761715.9,286047003.0,N
1535761735.7,286047003.5,N
1535761755.5,286047005.5,N
1535761775.4,286047005.2,N
1535761795.2,286047004.1,N
1535761815.1,286047004.3,N
1535761816.0,286047004.3,N
1535761835.8,286047003.3,N
1535761855.6,286047004.9,Y
1535761875.5,286047002.5,P
1535761895.3,286047002.6,P
1535761915.1,286047001.9,P
1535761935.9,286047002.6,Y
1535761955.7,286046998.5,P
1535761975.6,286047000.4,N
1535761995.4,286047000.2,N
1535762015.2,286047002.1,N
1535762035.1,286046999.8,N
1535762036.0,286046999.8,N
1535762055.8,286047000.1,N
1535762075.7,286047002.1,N
1535762095.5,286047001.8,N
1535762115.3,286047002.0,N
1535762135.2,286047002.2,N
1535762155.9,286047000.2,N
1535762175.7,286047000.2,N
1535762195.6,286047000.3,N
1535762215.4,286047000.0,N
1535762235.2,286047002.3,N
1535762255.1,286047001.5,N
1535762256.0,286047001.5,N
1535762275.8,286047001.8,N
1535762295.7,286047001.6,N
1535762315.5,286047004.3,Y
1535762335.3,286047002.1,P
1535762355.2,286047000.1,N
1535762375.0,286047001.2,N
1535762375.9,286047001.2,N
1535762395.8,286046999.0,N
1535762415.6,286046996.5,Y
1535762435.4,286046998.3,P
1535762455.3,286047000.9,N
1535762475.1,286047002.8,N
1535762495.8,286047002.0,N
1535762515.7,286047001.9,N
1535762535.5,286047001.3,N
1535762555.4,286047004.1,Y
1535762575.2,286047003.7,P
1535762595.0,286047004.4,P
1535762595.9,286047004.4,P
1535762615.8,286047001.8,N
1535762635.6,286047000.7,N
1535762655.4,286046998.7,N
1535762675.3,286047000.4,N
1535762695.1,286047000.1,N
1535762715.9,286047002.8,N
1535762735.7,286047000.5,N
1535762755.5,286046999.7,N
1535762775.4,286047002.3,N
1535762795.2,286047002.6,N
1535762815.0,286046999.9,N
1535762815.9,286046999.9,N
1535762835.8,286047002.5,N
1535762855.6,286047002.7,N
1535762875.5,286047002.6,N
1535762895.3,286046999.7,N
1535762915.1,286047002.4,N
1535762935.9,286046999.8,N
1535762955.7,286047000.7,N
1535762975.5,286046998.1,N
1535762995.4,286046998.1,N
1535763015.2,286046998.2,N
1535763035.1,286046999.7,N
1535763036.0,286046999.7,N
1535763055.8,286047001.9,N
1535763075.6,286047002.3,N
1535763095.5,286047002.6,N
1535763115.3,286047002.3,N
1535763135.1,286046999.7,N
1535763155.9,286047000.9,N
1535763175.7,286046999.7,N
1535763195.6,286047000.4,N
1535763215.4,286047002.8,N
1535763235.2,286047000.3,N
1535763255.1,286047002.6,N
1535763256.0,286047002.6,N
1535763275.8,286047001.7,N
1535763295.6,286047001.3,N
1535763315.5,286047002.7,N
1535763335.3,286047001.9,N
1535763355.2,286047004.4,N
1535763375.9,286047001.8,N
1535763395.7,286047002.6,N
1535763415.6,286047003.9,N
1535763435.4,286047003.5,N
1535763455.2,286047003.6,N
1535763475.1,286047003.2,N
1535763476.0,286047003.2,N
1535763495.8,286047003.8,N
1535763515.7,286047002.9,N
1535763535.5,286047004.5,N
1535763555.3,286047007.6,Y
1535763575.2,286047003.6,P
1535763595.0,286047005.6,P
1535763595.9,286047005.6,P
